sat.trackr.live / text

‹ back to catalog

STARLINK-4314

NORAD 53056 · 2022-077P

PAYLOAD ACTIVE UNKNOWN

§ Identity

Operator
Country
US
Launch date
2022-07-11
Launch site
AFWTR
Launch vehicle
Mass (kg)
RCS (m²)

Purposes: comms

External: N2YO · Heavens-Above · Gunter

§ Orbital elements

Epoch: 2026-09-19T21:59:30.722784Z

Period
93.91 min
Inclination
97.2828°
Eccentricity
0.0001966
Mean motion
15.33445330 rev/d
Perigee alt
464.2 km
Apogee alt
466.9 km
Semi-major
6,843.7 km
B*
-9.7797e-5
RAAN
78.7064°
Arg perigee
104.8813°
Mean anomaly
255.2648°
Rev number
23,026

§ Raw data

STARLINK-43141 53056U 22077P   26262.91632781 -.00003231  00000+0 -97797-4 0  99952 53056  97.2828  78.7064 0001966 104.8813 255.2648 15.33445330230262

JSON: /api/v1/satellites/53056 · /tle

For live sub-satellite position, see the globe view (requires WebGL).

§ Visibility from observer

Set your observer location to see the next 7 days of passes ≥ 10°. The values pass through the URL so the page stays shareable.

No JS? Fill the form by hand. The geolocation button needs JavaScript.